Weather in Afandou

Greece     36°17′43″N   28°09′44″E
В апреле 2022 года жителям России запретили посещать сайт meteo.paraplan.net по решению Генеральной прокуратуры. Аудитория сайта уменьшилась в 10 раз. Владельцы сайта не видят смысла в поддержке погодного сервера в таких условиях. Сайт будет закрыт в октябре.
temp.,
°C
wind,
m/s
gust,
m/s
humid.,
%
clouds,
%
prec.,
mm/h
press.,
hPa
HPBL,
m
4 october, tue
tue400:00+23nw610630 0.0 1007322
03:00+22nw510635 0.0 1007294
06:00+22nw610630 0.0 1007339
09:00+24nw69502 0.0 1008465
12:00+26nnw89425 0.0 1010380
15:00+27nw79380 0.0 1010275
18:00+25nw8134938 0.0 1010555
21:00+23nw1215550 0.0 1012501
5 october, wed
wed500:00+22nw913520 0.0 1013428
03:00+22nw912540 0.0 1013402
06:00+21nw810600 0.0 1014391
09:00+21nw56580 0.0 1016357
12:00+24nw55460 0.0 1016588
15:00+25nw46430 0.0 1015307
18:00+24wnw89500 0.0 1015455
21:00+22wnw711580 0.0 1015360
6 october, thu
thu600:00+22nw68570 0.0 1015298
03:00+22nw810550 0.0 1015377
06:00+20nnw56570 0.0 1015288
09:00+21nnw44550 0.0 1015321
12:00+24n33430 0.0 1015625
15:00+25nw23440 0.0 1014417
18:00+24wnw46510 0.0 1013362
21:00+22sw23543 0.0 1014150
7 october, fri
fri700:00+22w34581 0.0 1013174
03:00+21nw576359 0.0 1012269
06:00+21nnw56590 0.0 1012404
09:00+21n34540 0.0 1012415
12:00+22nne56510 0.0 1013711
15:00+24n34440 0.0 1011487
18:00+24wsw34490 0.0 1011216
21:00+23sse22560 0.0 1011139
8 october, sat
sat800:00+22n22580 0.0 1012201
03:00+21n44590 0.0 1012414
06:00+20n44600 0.0 1012447
09:00+21n44570 0.0 1013510
12:00+22nne44520 0.0 1014722
15:00+24nnw23410 0.0 1012824
18:00+24w34510 0.0 1012384
21:00+22w57620 0.0 1013305